{"data":{"norad_id":59543,"intl_designator":"2024-074K","name":"STARLINK-31574","alt_names":[],"object_type":"PAYLOAD","status":"ACTIVE","operator":null,"country":"US","launch_date":"2024-04-18","launch_site_code":"AFETR","launch_vehicle":null,"mission":null,"orbit_class":"UNKNOWN","rcs_meters":null,"size_class":null,"mass_kg":null,"dimensions":null,"purposes":["comms"],"wikipedia_slug":null,"has_3d_model":false,"image_url":null,"decayed_at":null,"tle_current":{"epoch":"2026-09-21T11:05:19.103424Z","epoch_age_seconds":85123,"freshness":"FRESH","line1":"1 59543U 24074K   26264.46202666  .00000548  00000+0  29434-4 0  9997","line2":"2 59543  43.0023 318.0346 0001072 274.2891  85.7838 15.27580119135959","mean_motion":15.27580119,"eccentricity":0.0001072,"inclination_deg":43.0023,"raan_deg":318.0346,"arg_perigee_deg":274.2891,"mean_anomaly_deg":85.7838,"bstar":2.9434e-5,"rev_number":13595,"period_min":94.266741370179,"perigee_km":482.31322059957,"apogee_km":483.78425882216,"semimajor_km":6861.1857397109,"source":"CELESTRAK","updated_at":"2026-09-22T09:00:48.972735Z"}}}